Location: Gradaro
(45.0833°N, 10.8833°E)
Time: 00:46:31
(UTC+00:00)

Cosmos 2263 Rocket - Pass Details

Date: 23 April 2021
Orbit: 824 x 848 km, 71.0° (Epoch: 15 May)

Event Time Altitude Azimuth Distance (km) Brightness Sun altitude
Exits shadow 23:40:35 - 281° (W) 2,914 5.0 -31.8°
Reaches altitude 10° 23:43:14 10° 303° (WNW) 2,431 4.8 -31.7°
Maximum altitude 23:45:07 12° 323° (NW) 2,320 4.9 -31.6°
Drops below altitude 10° 23:47:00 10° 343° (NNW) 2,437 5.3 -31.6°
Sets 23:51:25 0° 16° (NNE) 3,380 6.5 -31.5°
